#timestamp,LO_Frequency,Hit,StdDev 
1508590815.5,286046996.6,N
1508590835.3,286046997.1,N
1508590855.2,286047000.4,N
1508590875.9,286046998.7,N
1508590895.7,286046999.0,N
1508590915.5,286046999.3,N
1508590935.4,286046998.8,N
1508590955.2,286047001.2,N
1508590975.0,286047002.7,N
1508590975.9,286047002.7,N
1508590995.8,286047001.5,N
1508591015.6,286047003.6,N
1508591035.4,286047002.5,N
1508591055.3,286047000.2,N
1508591075.1,286047001.1,N
1508591095.8,286046997.0,N
1508591115.7,286047001.1,N
1508591135.5,286046998.4,N
1508591155.3,286047000.4,N
1508591175.2,286046998.0,N
1508591195.9,286046996.9,N
1508591215.7,286046996.6,N
1508591235.6,286046997.4,N
1508591255.4,286046995.7,N
1508591275.2,286046994.7,N
1508591295.1,286046995.4,N
1508591296.0,286046995.4,N
1508591315.8,286047001.1,N
1508591335.6,286046998.2,N
1508591355.5,286046998.1,N
1508591375.3,286046998.6,N
1508591395.1,286046998.8,N
1508591415.9,286046998.6,N
1508591435.7,286047001.5,N
1508591455.5,286047001.9,N
1508591475.4,286047003.1,N
1508591495.2,286047000.3,N
1508591515.0,286047002.2,N
1508591515.9,286047002.2,N
1508591535.8,286046998.9,N
1508591555.6,286047002.6,N
1508591575.4,286047003.4,N
1508591595.3,286047006.5,N
1508591615.1,286047005.1,N
1508591616.0,286047005.1,N
1508591635.8,286047001.8,N
1508591655.6,286047001.4,N
1508591675.5,286047003.7,N
1508591695.3,286047001.7,N
1508591715.1,286047000.4,N
1508591735.9,286046997.6,N
1508591755.7,286047000.9,N
1508591775.5,286047001.5,N
1508591795.4,286047000.2,N
1508591815.2,286047004.0,N
1508591835.0,286046996.7,N
1508591835.9,286046996.7,N
1508591855.8,286047002.6,N
1508591875.6,286047000.6,N
1508591895.4,286046997.0,N
1508591915.3,286047002.2,N
1508591935.1,286046999.8,N
1508591955.8,286046999.7,N
1508591975.7,286046997.7,N
1508591995.5,286047002.4,N
1508592015.3,286046998.3,N
1508592035.2,286046998.8,N
1508592055.9,286047000.9,N
1508592075.7,286046997.1,N
1508592095.6,286046998.7,N
1508592115.4,286046999.6,N
1508592135.2,286046995.7,N
1508592155.1,286046993.6,N
1508592156.0,286046993.6,N
1508592175.8,286046993.0,N
1508592195.6,286046994.3,N
1508592215.4,286046994.6,N
1508592235.3,286046995.9,N
1508592255.1,286046995.1,N
1508592275.8,286046997.6,N
1508592295.7,286046999.3,N
1508592315.5,286046997.7,N
1508592335.3,286046997.4,N
1508592355.2,286046998.2,N
1508592375.0,286047002.3,N
1508592375.9,286047002.3,N
1508592395.7,286047003.2,N
1508592415.6,286047005.7,N
1508592435.4,286047003.0,N
1508592455.2,286047001.3,N
1508592475.1,286047006.0,N
1508592476.0,286047006.0,N
1508592495.8,286047006.0,N
1508592515.6,286047005.5,N
1508592535.5,286047003.2,N
1508592555.3,286047002.1,N
1508592575.1,286047003.0,N
1508592595.9,286046998.5,N
1508592615.7,286046997.6,N
1508592635.5,286046997.0,N
1508592655.4,286046999.4,N
1508592675.2,286047000.3,N
1508592695.0,286046999.8,N
1508592695.9,286046999.8,N
1508592715.8,286047003.4,N
1508592735.6,286046998.1,N
1508592755.4,286046998.9,N
1508592775.3,286046998.2,N
1508592795.1,286046999.4,N
1508592796.0,286046999.4,N
1508592815.8,286046997.3,N
1508592835.7,286046995.9,N
1508592855.5,286046994.2,N
1508592875.3,286046995.9,N
1508592895.2,286046995.9,N
1508592915.9,286046997.9,N
1508592935.7,286046999.2,N
1508592955.6,286046999.4,N
1508592975.4,286046998.4,N
1508592995.2,286046999.5,N
1508593015.0,286047003.9,N
1508593016.0,286047003.9,N
1508593035.8,286046999.5,N
1508593055.6,286046996.9,N
1508593075.4,286046997.3,N
1508593095.3,286046997.8,N
1508593115.1,286047000.8,N
1508593135.8,286047004.4,N
1508593155.7,286047002.0,N
1508593175.5,286047004.3,N
1508593195.3,286047000.7,N
1508593215.2,286047000.0,N
1508593235.0,286047000.0,N
1508593235.9,286047000.0,N
1508593255.8,286046996.6,N
1508593275.6,286046995.9,N
1508593295.4,286046994.6,N
1508593315.3,286046992.6,N
1508593335.1,286046994.3,N
1508593355.8,286046995.2,N
1508593375.7,286046996.3,N
1508593395.5,286046995.5,N
1508593415.3,286046995.7,N
1508593435.2,286046992.3,N
1508593455.9,286046997.2,N
1508593475.7,286046995.6,N
1508593495.6,286046994.9,N
1508593515.4,286046997.6,N
1508593535.2,286046993.3,N
1508593555.1,286046993.6,N
1508593556.0,286046993.6,N
1508593575.8,286046999.1,N
1508593595.7,286047000.8,N
1508593615.5,286046998.7,N
1508593635.3,286046995.0,N
1508593655.1,286047001.1,N
1508593675.9,286046998.2,N
1508593695.7,286046999.9,N
1508593715.5,286047002.0,N
1508593735.4,286046999.9,N
1508593755.2,286047000.4,N
1508593775.0,286046995.5,N
1508593775.9,286046995.5,N
1508593795.8,286046994.2,N
1508593815.6,286046994.2,N
1508593835.4,286046994.3,N
1508593855.3,286046999.6,N
1508593875.1,286046993.6,N
1508593895.8,286046998.8,N
1508593915.7,286046999.4,N
1508593935.5,286046999.4,N
1508593955.3,286046991.7,Y
1508593975.2,286046996.3,P
1508593995.0,286046998.3,P
1508593995.9,286046998.3,N
1508594015.7,286047000.7,N
1508594035.6,286046998.7,N
1508594055.4,286046999.5,N
1508594075.2,286047001.1,N
1508594095.1,286047000.5,N
1508594096.0,286047000.5,N
1508594115.8,286047000.2,N
1508594135.6,286047002.4,N
1508594155.5,286047002.5,N
1508594175.3,286047000.1,N
1508594195.1,286046999.0,N
1508594215.9,286047002.3,N
1508594235.7,286047005.8,Y
1508594255.5,286047004.3,P
1508594275.4,286047000.2,N
1508594295.2,286047000.9,N
1508594315.0,286047002.3,N
1508594315.9,286047002.3,N
1508594335.8,286047000.5,N
1508594355.6,286047000.3,N
1508594375.4,286047002.6,N
1508594395.3,286046999.9,N
